Temperature
21 20 20 21 25 29 30 31 31 31 31 30 29 30 30 29 28 26 21 21 21 20 20 20 20 20 20 20 20 20 20 20 20 20 20 20 20 19 19 19 19 19 19 19 19 19 19 19 18
20 20 21 24 28 31 30 31 30 30 30 29 29 29 29 26 23 22 21 20 20 20 20 20 20 20 20 20 20 20 20 20 20 20 20 20 19 19 19 19 19 19 19 19 19 19 19 19 19
20 20 24 28 30 30 30 31 30 30 30 29 29 28 27 25 22 21 21 20 20 20 19 20 20 20 20 20 20 20 20 20 20 20 20 20 19 19 19 19 19 19 19 19 19 19 19 19 19
21 23 25 29 30 30 30 30 30 31 30 29 29 28 24 21 22 21 20 20 20 19 19 20 20 20 20 20 20 20 20 20 20 20 20 19 19 19 19 19 19 19 18 19 19 19 19 19 19
22 26 29 30 30 30 30 30 30 31 30 29 29 28 24 20 21 21 20 20 20 20 19 19 20 20 20 20 20 20 20 20 20 19 19 19 19 19 19 19 18 18 18 18 19 19 19 19 19
25 28 30 30 30 30 30 30 30 30 29 28 28 27 23 20 20 20 20 20 20 20 19 19 20 19 19 19 19 19 19 19 19 19 19 19 19 19 19 19 18 18 18 18 18 19 19 19 19
27 29 30 30 30 30 30 29 30 29 29 28 28 27 23 20 20 20 19 20 20 20 19 18 19 19 19 19 19 19 19 19 19 19 19 19 19 19 18 18 18 18 18 18 18 18 18 18 19
26 29 29 30 29 30 29 29 28 28 27 26 27 27 24 20 19 19 19 19 19 19 19 18 18 18 19 19 19 19 19 19 19 19 19 18 18 18 18 18 18 18 18 18 18 18 18 18 18
24 28 29 30 30 30 29 29 28 27 26 25 25 25 23 20 19 19 19 19 19 19 19 19 19 18 18 18 18 18 19 19 18 18 18 18 18 18 18 18 18 18 18 18 18 18 18 18 18
26 28 29 29 29 30 29 28 28 28 27 25 23 22 21 20 19 19 19 19 19 19 19 19 18 18 18 18 18 18 18 18 18 18 18 18 18 18 17 17 18 18 18 18 18 18 18 18 17
27 28 29 29 28 28 28 28 27 28 28 26 24 22 21 20 20 20 20 19 19 19 19 19 18 18 18 18 18 18 18 18 18 18 18 18 18 18 17 18 18 18 18 18 17 17 17 17 17
27 28 27 27 27 27 28 27 27 26 25 23 23 22 21 21 21 21 20 19 19 19 19 19 19 18 18 18 18 18 18 18 18 18 18 18 18 18 17 17 17 17 17 17 17 17 17 17 17
27 28 27 27 27 27 27 27 26 24 23 22 21 21 21 21 21 20 20 20 19 19 19 19 19 18 18 19 18 18 18 18 18 18 18 18 17 17 17 17 17 17 17 17 17 17 17 17 17
28 27 27 27 27 26 27 26 25 23 22 21 21 21 21 21 21 20 19 19 19 19 19 19 19 19 19 19 18 18 18 18 18 17 17 17 17 17 17 17 17 17 16 16 17 16 16 17 16
27 28 28 27 27 26 27 26 24 22 21 21 21 20 20 20 19 19 19 19 19 19 19 19 19 19 19 18 18 18 17 17 17 17 17 17 17 17 17 16 16 16 16 16 16 16 16 16 16
28 28 28 28 27 26 27 26 24 21 22 21 20 19 19 19 19 19 18 19 18 18 18 18 18 18 18 18 18 17 17 17 16 16 16 16 16 16 16 16 16 16 16 15 15 15 15 16 16
28 28 28 27 27 27 27 26 23 22 22 21 21 20 19 19 18 18 18 18 18 18 18 18 18 18 17 17 17 17 17 17 16 16 16 16 16 16 15 15 15 15 15 15 15 15 15 15 15
28 28 28 27 26 26 26 25 23 22 22 22 21 20 20 19 18 18 18 18 18 18 18 18 18 18 18 17 17 17 17 16 16 16 16 15 15 15 15 15 14 14 14 14 14 14 14 14 14
28 28 27 26 25 26 25 24 23 22 22 22 22 21 20 20 19 18 18 18 18 18 18 18 18 18 17 17 17 16 16 16 15 15 15 15 15 14 14 14 14 14 14 14 14 14 14 14 14
27 27 27 25 25 25 25 24 23 22 22 21 21 21 20 20 19 18 18 18 18 18 18 18 18 17 17 17 17 16 16 15 15 15 15 14 14 14 14 13 13 13 13 13 13 13 14 14 14
27 27 27 26 25 25 25 24 23 23 22 21 21 21 21 20 20 19 18 18 18 18 18 17 17 17 17 17 16 16 15 15 15 14 14 14 13 13 13 13 13 12 13 13 13 13 13 13 14
27 27 26 25 25 25 25 24 24 23 23 22 22 21 21 21 21 20 19 19 18 18 17 17 17 17 17 16 16 15 15 15 15 14 14 13 13 12 12 12 12 12 12 12 12 13 12 12 13
26 26 26 26 26 26 25 25 25 24 23 23 23 22 22 22 21 21 20 19 19 18 18 17 17 17 16 16 15 15 15 14 14 14 13 13 13 12 12 11 11 11 11 11 11 11 11 12 12
26 26 25 26 27 26 25 25 25 25 24 25 24 23 23 22 22 21 20 19 19 18 18 17 17 16 16 16 15 15 14 14 13 13 13 13 13 12 12 11 11 11 11 11 10 11 11 11 11
26 27 26 26 26 26 25 25 25 25 25 25 25 24 23 23 22 21 20 20 19 18 18 17 17 16 16 15 15 14 13 13 13 12 13 12 12 12 12 11 10 10 10 10 10 10 10 10 11
27 27 26 26 26 26 25 26 26 26 25 24 24 24 24 23 22 21 21 20 19 18 18 17 16 16 15 15 14 14 13 13 13 12 12 12 12 12 11 10 10 10 10 10 10 10 10 10 10
28 28 28 27 27 26 26 26 26 26 25 25 25 24 24 23 22 21 20 20 19 18 17 17 16 15 15 14 13 13 12 12 12 11 11 11 11 11 11 10 10 10 10 10 10 10 10 10 10
28 28 27 27 26 26 26 26 27 26 26 26 26 25 24 23 22 21 20 19 18 18 17 16 16 15 14 13 13 13 12 12 11 11 11 11 10 10 10 10 10 10 9 9 9 9 10 9 10
27 27 27 27 27 26 26 27 28 27 27 27 26 25 25 24 22 21 20 19 18 17 17 16 15 14 14 13 13 12 12 11 11 11 10 10 10 10 10 10 10 9 9 9 9 9 9 9 9
28 28 27 26 26 26 26 27 28 28 28 27 27 25 24 23 22 21 19 18 18 17 16 16 15 14 13 13 12 12 12 11 11 11 10 10 10 10 10 10 9 9 9 9 9 9 9 9 9
Wind_Speed
14 11 6 4 5 4 3 4 4 5 4 5 6 4 5 7 4 5 8 14 17 18 20 20 16 14 13 13 14 14 14 15 15 14 14 13 12 11 10 9 8 7 7 7 7 7 8 8 8
12 8 5 5 5 2 4 5 5 6 3 3 4 5 6 8 7 8 10 14 18 18 19 19 18 15 14 13 14 14 14 14 14 13 13 12 11 10 9 9 8 7 6 6 6 6 7 7 7
10 7 5 4 3 2 3 6 6 3 2 2 4 6 5 7 7 6 10 17 18 17 17 19 18 16 14 14 14 13 13 13 13 12 12 11 10 9 8 7 7 6 6 6 5 5 5 6 6
6 5 5 7 3 2 4 6 4 1 4 3 5 8 7 7 4 8 15 18 18 16 17 19 18 16 14 14 13 13 13 12 12 11 10 9 9 8 7 7 6 5 5 5 5 4 5 5 5
6 5 7 7 2 2 3 5 2 1 3 4 5 9 8 6 8 13 15 17 16 15 15 19 17 16 14 13 13 13 12 12 11 10 10 9 8 7 6 6 5 5 5 5 5 4 4 4 4
5 5 9 7 1 2 4 4 2 5 6 6 7 10 7 7 10 12 13 14 15 14 15 17 16 14 14 13 12 12 11 11 11 10 9 8 7 7 6 6 5 5 5 5 5 5 5 5 5
7 7 9 5 2 2 4 4 4 5 7 6 5 8 8 9 10 10 11 11 13 13 13 14 15 14 13 12 11 11 11 10 10 9 9 8 8 7 7 7 6 6 6 6 6 6 7 7 7
5 6 8 6 3 2 3 4 4 4 6 5 3 6 9 11 12 11 11 10 11 11 11 11 12 12 12 12 11 10 9 8 8 8 8 7 8 9 9 10 9 8 7 7 8 8 8 8 9
4 7 7 3 2 1 3 2 3 4 7 6 6 8 13 17 14 13 12 11 11 10 9 9 10 9 9 9 10 10 9 8 8 8 8 8 8 8 9 9 5 7 7 8 8 9 10 10 12
5 7 2 3 5 4 3 2 1 5 8 9 10 13 16 15 13 13 13 12 12 11 9 7 6 7 6 6 7 6 7 7 6 4 5 6 5 5 6 2 5 7 8 8 9 10 11 13 11
5 5 4 4 5 6 3 0 1 4 6 6 10 14 15 14 12 11 11 11 11 10 9 8 7 6 6 4 4 3 3 3 4 4 4 4 3 4 5 4 5 7 8 8 8 9 9 9 9
5 5 6 7 6 5 2 2 3 4 5 6 10 13 13 13 11 10 10 10 10 9 8 7 7 5 4 3 3 3 3 3 3 3 4 4 3 3 4 4 5 5 6 6 6 5 8 9 10
7 5 4 4 4 2 2 4 5 7 8 9 11 11 11 10 10 9 8 9 9 9 8 6 5 4 4 3 3 2 2 2 2 2 3 4 3 3 4 4 5 6 6 6 6 6 7 7 9
4 5 4 3 0 2 4 6 5 7 8 9 9 9 8 8 8 8 8 8 8 8 7 6 5 4 4 3 3 2 2 1 2 2 3 3 4 4 4 4 4 5 6 6 6 6 6 6 7
6 6 4 2 2 3 5 6 5 7 8 9 8 7 7 6 6 6 7 7 8 7 7 6 5 5 4 3 3 2 1 1 1 2 2 2 3 3 3 3 4 4 5 5 5 6 6 6 7
7 7 5 4 2 4 7 5 8 6 8 9 8 7 7 6 6 5 6 6 7 7 7 6 4 5 4 2 1 1 0 1 1 1 1 2 2 2 3 3 3 3 4 4 4 5 6 6 7
6 4 2 4 2 3 6 3 8 6 6 8 8 8 7 7 6 6 5 6 6 6 6 6 5 5 4 3 2 1 1 1 1 1 1 2 2 3 3 3 3 4 5 5 6 5 6 7 7
5 5 2 0 2 3 5 4 7 6 6 7 7 8 7 7 7 6 6 5 5 6 5 6 6 5 5 4 3 2 1 1 0 1 1 1 1 2 4 4 3 5 6 5 5 6 6 7 7
7 7 4 2 1 3 4 5 7 6 6 6 7 7 7 7 8 7 7 6 6 6 6 5 5 5 4 3 3 2 2 1 1 1 0 1 2 2 4 5 4 5 6 6 7 7 8 8 7
6 5 1 3 1 2 3 5 6 6 6 5 6 7 8 8 8 8 8 7 7 7 6 6 6 5 5 3 2 1 2 2 2 1 0 1 2 4 5 4 6 6 6 7 7 7 8 9 7
4 4 2 2 4 3 4 5 6 7 6 6 6 7 8 9 9 9 9 8 8 7 7 6 5 5 5 4 4 3 3 4 3 3 3 2 4 5 5 6 7 6 8 7 7 8 10 9 9
3 1 2 4 5 2 3 2 6 7 9 9 9 9 10 10 10 10 10 9 9 8 8 7 7 6 6 6 5 5 5 5 4 4 4 4 5 6 6 7 7 7 8 8 9 9 8 9 10
2 2 4 4 3 2 2 3 4 7 9 11 11 11 11 11 10 10 10 9 9 8 8 7 7 7 6 6 5 5 6 5 5 5 5 6 6 6 7 7 7 7 8 8 8 9 10 9 10
6 5 5 6 6 1 1 3 3 5 8 10 12 12 11 11 10 9 8 8 8 8 7 7 7 6 6 6 5 5 6 6 7 7 7 7 7 6 7 7 7 8 9 8 9 9 10 10 10
6 5 4 4 2 2 2 2 3 5 6 8 11 12 11 10 10 9 8 8 8 8 7 6 6 6 5 5 5 5 5 6 7 8 7 8 8 7 6 8 8 9 8 9 9 10 10 10 11
4 5 5 5 5 2 3 1 4 6 6 7 8 9 10 10 9 8 7 7 7 6 6 6 5 5 4 4 4 4 5 6 6 6 8 9 8 8 8 9 9 10 10 10 9 10 11 10 10
2 3 4 4 3 2 2 2 4 7 8 9 10 10 10 9 9 8 7 7 7 6 5 5 4 4 4 4 4 4 5 6 7 7 8 8 7 8 9 9 10 10 10 10 11 10 10 10 11
3 2 2 4 5 3 1 1 2 7 10 11 12 12 11 10 9 8 8 7 6 6 5 4 4 4 4 5 5 5 5 6 7 8 8 9 9 9 10 11 11 11 11 11 11 12 11 11 11
4 4 3 4 4 5 3 2 3 5 7 10 11 11 10 10 10 9 8 8 7 6 5 5 4 5 5 5 5 6 6 7 8 8 9 9 9 10 11 11 12 12 12 12 11 12 12 13 13
5 4 4 5 4 4 6 1 6 5 6 7 8 9 9 9 9 9 9 8 7 6 5 5 5 5 5 5 6 7 7 8 9 9 9 9 10 10 11 11 12 12 12 12 12 13 13 13 13
Wind_Direction
172 183 207 231 243 224 82 60 22 15 35 45 50 48 53 43 16 73 121 143 142 144 142 148 147 146 141 136 134 134 137 142 145 144 144 146 147 147 147 145 143 139 129 117 109 105 104 105 107
173 180 213 240 261 195 97 42 16 14 51 88 79 71 73 67 58 99 133 141 146 144 146 152 146 147 143 139 136 135 134 136 139 141 142 145 147 148 148 149 148 146 139 129 120 114 112 113 114
170 203 246 252 263 334 35 20 11 19 99 119 94 65 64 67 88 112 136 147 147 144 145 144 149 149 147 144 141 138 137 137 139 142 144 146 149 150 152 153 154 155 150 140 133 127 124 125 126
182 215 237 250 243 36 350 349 352 101 106 101 119 96 86 51 56 119 140 148 146 147 150 145 153 151 151 149 147 144 142 142 144 146 149 152 154 157 161 165 168 166 159 152 148 145 142 142 142
230 250 246 237 226 30 358 351 338 113 99 106 119 107 89 53 87 124 142 149 151 151 149 146 154 153 154 154 152 151 150 151 152 154 156 160 164 169 175 179 186 185 178 171 171 171 166 169 172
229 248 252 243 179 45 34 22 66 94 103 108 115 112 88 93 108 126 141 153 153 151 149 144 153 156 157 158 157 157 158 160 161 164 167 170 175 181 188 193 200 207 205 195 195 194 191 193 197
263 260 261 261 255 107 45 30 63 96 101 89 106 112 116 114 116 126 136 148 150 150 145 151 160 161 163 163 164 165 167 170 172 177 180 185 190 199 208 211 217 226 228 220 217 216 211 209 212
275 263 249 239 240 112 54 43 59 85 92 86 84 122 135 133 129 126 132 143 148 151 153 156 162 164 170 171 170 172 175 179 183 188 193 199 208 212 216 222 216 228 237 240 236 232 228 222 221
254 250 244 241 263 49 42 41 77 96 109 87 69 81 117 130 133 136 141 147 153 157 159 165 163 166 177 178 168 179 183 190 198 200 201 218 229 226 218 230 208 232 241 246 248 246 240 234 225
239 253 272 329 313 320 344 342 101 150 127 108 102 105 122 134 143 149 153 157 161 164 167 165 170 164 180 182 170 194 194 187 212 213 210 226 244 261 264 207 227 245 252 249 245 252 250 243 238
243 273 318 310 314 310 294 176 189 186 132 122 133 136 140 141 150 156 158 160 162 169 174 172 171 173 188 186 192 193 199 186 210 218 229 239 259 263 269 263 236 238 241 247 234 240 251 249 247
256 276 292 302 316 296 265 160 127 70 74 102 133 142 144 150 152 156 157 162 165 175 176 179 171 181 191 200 204 212 217 208 227 221 252 244 242 255 267 277 277 271 265 264 262 250 252 256 250
249 283 305 307 302 287 199 151 121 93 90 106 126 138 145 147 148 149 152 157 164 173 175 171 173 176 184 191 224 225 238 245 256 286 258 258 255 254 251 263 272 275 274 270 267 264 264 263 259
298 287 284 290 281 162 160 133 123 98 105 110 120 133 139 144 147 147 153 157 165 167 163 156 163 168 181 196 208 228 249 289 296 278 271 259 257 263 261 255 261 268 269 276 275 272 270 267 262
271 262 218 167 170 162 172 144 110 114 123 120 121 127 126 131 141 149 153 156 156 154 151 151 162 162 169 197 207 191 204 228 294 305 297 295 282 270 270 264 261 269 273 268 266 270 268 265 263
242 241 215 136 177 178 231 169 121 138 142 132 133 132 132 129 133 136 141 146 148 146 143 148 154 145 153 167 181 178 134 20 330 308 311 344 336 303 284 279 274 282 274 270 269 268 276 275 276
222 265 308 137 151 198 233 147 134 152 157 145 145 141 139 135 132 133 140 143 146 143 143 143 141 143 145 146 153 148 106 21 325 330 4 13 340 322 298 299 309 281 274 272 275 280 282 280 280
321 311 296 216 114 220 216 148 142 159 170 161 155 146 143 143 144 139 137 137 141 138 137 139 142 137 146 154 156 160 168 198 270 0 37 330 306 312 308 286 300 291 281 277 278 283 273 279 279
302 298 308 60 76 232 196 164 158 158 173 175 165 155 149 149 148 146 149 152 149 144 145 151 150 148 166 172 186 192 202 225 233 228 116 288 321 326 305 303 297 283 283 290 288 284 274 270 276
272 279 287 125 141 222 164 157 156 169 179 182 171 163 158 162 160 160 166 169 166 163 165 171 176 176 191 177 204 236 268 257 254 265 195 292 319 313 300 312 293 288 290 275 279 276 284 284 273
271 296 312 166 154 166 186 178 178 183 186 190 183 174 173 178 174 173 181 184 181 180 185 188 187 193 204 201 215 215 228 246 243 257 258 291 303 301 306 296 295 300 287 284 287 282 270 278 279
300 12 200 182 208 158 240 229 174 183 192 195 190 187 183 187 186 186 188 192 195 196 196 200 200 204 206 215 233 248 269 284 293 289 292 293 285 292 292 289 288 289 292 293 279 277 280 272 274
36 143 186 205 235 219 224 278 138 177 192 193 191 192 189 190 191 195 197 198 201 202 203 202 203 208 211 223 230 247 267 282 285 287 283 287 285 279 282 282 286 285 284 291 293 290 277 273 271
144 163 182 214 232 251 26 302 116 164 185 182 185 189 190 192 194 198 202 202 206 205 206 207 205 210 213 221 233 252 274 285 293 290 294 288 287 283 278 280 281 279 284 286 279 278 270 269 275
212 256 254 223 219 63 99 289 74 129 164 176 180 183 188 191 195 198 202 204 205 207 206 206 202 209 214 223 237 252 269 277 274 284 291 291 292 290 292 293 287 284 282 279 279 273 275 272 268
231 289 326 332 352 43 149 17 102 140 161 179 184 184 188 193 197 200 200 199 197 191 189 193 197 205 212 224 240 257 268 277 285 290 297 294 293 298 306 291 283 281 279 278 275 274 269 265 265
229 273 331 298 296 306 82 107 152 169 184 189 191 192 194 194 191 190 185 181 176 175 178 184 190 204 221 236 247 258 269 284 291 288 277 285 291 290 290 288 283 280 277 275 274 270 272 270 266
303 279 262 303 328 328 82 169 125 176 190 191 195 198 196 191 187 178 170 168 165 168 167 179 198 217 234 242 255 266 273 276 279 283 293 292 290 288 287 285 284 281 277 272 269 271 265 264 264
188 213 263 295 315 310 333 51 100 175 189 196 199 200 197 192 184 175 170 166 167 172 179 194 207 223 237 253 261 272 276 283 284 283 285 287 286 287 283 284 284 282 279 275 269 267 271 266 265
257 257 246 280 285 282 298 338 131 180 194 203 206 196 192 186 178 172 170 172 179 188 199 210 224 236 248 260 264 267 275 281 284 286 289 288 286 285 285 285 283 282 281 278 273 269 269 267 265
Height
1527 1528 1531 1532 1526 1513 1507 1505 1503 1502 1501 1505 1505 1504 1505 1508 1511 1521 1526 1527 1529 1532 1534 1537 1540 1543 1546 1548 1551 1553 1554 1556 1557 1559 1560 1561 1562 1563 1563 1564 1565 1565 1566 1566 1567 1567 1567 1567 1568
1529 1530 1532 1529 1515 1509 1509 1504 1503 1503 1505 1507 1507 1508 1509 1515 1520 1523 1525 1528 1531 1534 1536 1539 1541 1544 1547 1550 1552 1554 1555 1557 1558 1560 1561 1562 1563 1564 1564 1565 1566 1566 1567 1567 1568 1568 1568 1569 1569
1530 1531 1531 1519 1510 1510 1509 1504 1504 1505 1506 1507 1509 1511 1514 1520 1524 1526 1527 1530 1534 1536 1539 1540 1543 1546 1548 1551 1553 1555 1557 1558 1559 1561 1562 1563 1564 1564 1565 1566 1567 1567 1568 1568 1569 1569 1570 1570 1570
1531 1531 1527 1515 1508 1507 1507 1505 1505 1504 1506 1508 1509 1514 1520 1525 1526 1527 1529 1532 1535 1538 1541 1542 1544 1547 1550 1552 1554 1556 1558 1559 1560 1561 1562 1563 1564 1565 1566 1567 1567 1568 1569 1569 1569 1570 1570 1571 1571
1531 1527 1516 1508 1506 1506 1506 1506 1505 1503 1506 1509 1510 1515 1522 1526 1527 1529 1531 1535 1538 1541 1543 1543 1546 1549 1551 1553 1555 1557 1559 1560 1561 1562 1563 1564 1565 1566 1567 1567 1568 1569 1569 1570 1570 1570 1571 1572 1572
1528 1521 1513 1508 1506 1507 1506 1507 1505 1505 1509 1510 1512 1516 1525 1527 1529 1531 1534 1538 1541 1543 1545 1545 1547 1550 1552 1554 1556 1558 1559 1561 1562 1563 1564 1565 1565 1566 1567 1568 1568 1569 1570 1570 1571 1571 1571 1572 1572
1526 1517 1510 1508 1509 1508 1509 1508 1507 1508 1510 1513 1514 1517 1526 1529 1530 1532 1535 1539 1542 1545 1547 1547 1549 1551 1553 1555 1557 1558 1560 1561 1562 1563 1564 1565 1565 1566 1567 1568 1568 1569 1569 1570 1570 1571 1571 1572 1572
1526 1518 1510 1508 1510 1508 1509 1510 1510 1510 1514 1517 1517 1517 1524 1529 1530 1532 1535 1539 1542 1545 1548 1549 1551 1553 1554 1556 1557 1559 1560 1561 1562 1563 1564 1564 1565 1566 1566 1567 1567 1568 1568 1569 1569 1570 1570 1571 1571
1527 1519 1510 1508 1509 1507 1509 1510 1513 1514 1516 1518 1519 1520 1524 1527 1530 1533 1536 1540 1542 1545 1548 1550 1552 1553 1555 1557 1558 1559 1560 1561 1561 1562 1563 1564 1565 1566 1566 1567 1567 1567 1567 1568 1568 1569 1569 1569 1570
1524 1515 1510 1511 1510 1508 1510 1511 1512 1512 1514 1519 1522 1524 1526 1528 1532 1535 1538 1540 1543 1545 1548 1550 1552 1553 1555 1557 1558 1559 1560 1561 1561 1562 1562 1563 1564 1565 1566 1565 1565 1565 1565 1566 1566 1567 1567 1568 1569
1520 1515 1513 1512 1512 1512 1511 1511 1513 1511 1512 1519 1522 1525 1528 1530 1534 1537 1539 1541 1543 1545 1548 1550 1551 1552 1554 1556 1557 1559 1559 1560 1560 1561 1561 1561 1562 1562 1563 1563 1564 1563 1563 1564 1564 1564 1565 1566 1566
1519 1516 1516 1514 1513 1512 1511 1512 1514 1515 1518 1522 1524 1527 1529 1532 1535 1537 1540 1541 1543 1546 1548 1550 1551 1552 1553 1554 1556 1556 1558 1558 1559 1558 1558 1559 1559 1560 1560 1560 1561 1561 1561 1561 1561 1561 1562 1562 1562
1517 1515 1515 1514 1513 1512 1512 1513 1516 1520 1523 1525 1526 1529 1531 1533 1536 1538 1540 1541 1543 1545 1547 1549 1549 1551 1551 1552 1554 1555 1555 1556 1557 1556 1556 1557 1557 1557 1557 1557 1557 1557 1558 1558 1558 1558 1558 1558 1558
1514 1514 1513 1513 1513 1514 1513 1515 1518 1523 1525 1527 1529 1531 1533 1535 1537 1539 1540 1541 1543 1545 1546 1547 1548 1549 1550 1551 1552 1553 1554 1554 1554 1555 1554 1554 1554 1554 1554 1554 1554 1554 1555 1555 1555 1554 1554 1554 1554
1515 1512 1509 1511 1512 1513 1513 1515 1520 1526 1526 1528 1531 1533 1534 1536 1538 1539 1540 1541 1543 1544 1546 1546 1548 1548 1549 1550 1551 1552 1553 1553 1553 1553 1552 1552 1552 1552 1551 1552 1551 1551 1552 1551 1551 1551 1550 1550 1550
1509 1507 1506 1508 1511 1513 1514 1514 1523 1527 1527 1529 1532 1534 1535 1537 1538 1540 1541 1542 1543 1544 1545 1546 1548 1548 1549 1550 1550 1552 1552 1552 1552 1551 1551 1550 1550 1549 1549 1550 1550 1549 1549 1549 1548 1548 1548 1548 1547
1504 1504 1505 1508 1510 1511 1511 1513 1523 1527 1528 1530 1532 1534 1536 1538 1539 1540 1541 1542 1543 1544 1545 1546 1547 1548 1549 1550 1550 1551 1551 1551 1551 1550 1550 1549 1548 1548 1548 1548 1547 1546 1547 1546 1546 1546 1545 1544 1543
1506 1503 1505 1507 1510 1511 1511 1515 1522 1526 1528 1529 1532 1534 1536 1538 1539 1540 1541 1542 1543 1544 1545 1547 1548 1548 1549 1550 1550 1551 1550 1550 1550 1549 1548 1547 1547 1546 1546 1546 1544 1544 1544 1543 1543 1541 1541 1540 1540
1505 1505 1506 1510 1513 1513 1513 1517 1521 1526 1528 1529 1530 1533 1535 1538 1540 1541 1542 1543 1544 1545 1546 1547 1548 1548 1549 1550 1551 1551 1551 1550 1549 1548 1546 1546 1545 1544 1543 1543 1542 1541 1541 1540 1539 1539 1538 1538 1537
1505 1506 1508 1513 1514 1513 1515 1519 1521 1525 1527 1529 1530 1533 1535 1538 1539 1540 1542 1543 1544 1545 1546 1547 1547 1548 1549 1549 1549 1549 1549 1548 1548 1546 1544 1543 1542 1541 1541 1539 1539 1538 1537 1536 1535 1534 1534 1534 1534
1504 1505 1507 1512 1514 1514 1515 1520 1521 1523 1526 1529 1530 1531 1534 1536 1538 1539 1541 1543 1544 1545 1545 1546 1546 1547 1547 1547 1548 1547 1546 1546 1546 1544 1543 1541 1539 1538 1537 1536 1535 1534 1534 1534 1532 1531 1531 1531 1530
1505 1505 1507 1511 1512 1512 1515 1521 1518 1518 1522 1525 1527 1530 1532 1534 1536 1538 1540 1542 1543 1544 1544 1545 1545 1545 1545 1545 1546 1546 1545 1545 1544 1542 1541 1539 1537 1535 1534 1533 1532 1531 1531 1530 1529 1529 1527 1527 1526
1506 1506 1506 1507 1508 1510 1511 1514 1515 1516 1519 1520 1524 1527 1529 1532 1534 1537 1538 1540 1541 1542 1543 1543 1543 1543 1543 1543 1542 1542 1542 1541 1541 1539 1537 1535 1535 1532 1531 1530 1529 1527 1527 1526 1524 1523 1523 1523 1523
1507 1507 1508 1506 1503 1514 1513 1514 1515 1511 1513 1515 1519 1523 1527 1529 1532 1534 1536 1537 1538 1540 1540 1541 1541 1540 1540 1540 1539 1539 1538 1537 1537 1535 1535 1533 1532 1530 1529 1527 1525 1524 1523 1522 1520 1519 1518 1518 1517
1505 1506 1510 1511 1511 1514 1510 1511 1511 1507 1509 1512 1515 1520 1524 1527 1529 1531 1533 1534 1535 1536 1537 1538 1537 1537 1537 1536 1536 1535 1534 1534 1533 1532 1531 1530 1529 1527 1525 1523 1521 1520 1518 1517 1516 1515 1514 1513 1512
1501 1502 1513 1521 1516 1508 1509 1510 1505 1505 1509 1512 1515 1517 1521 1524 1526 1528 1530 1531 1533 1534 1534 1535 1535 1534 1534 1533 1533 1532 1531 1531 1531 1529 1527 1526 1525 1523 1521 1518 1517 1515 1514 1513 1511 1510 1510 1508 1507
1499 1498 1495 1502 1505 1508 1506 1505 1501 1504 1508 1510 1513 1515 1518 1521 1523 1525 1527 1529 1530 1531 1532 1532 1532 1531 1531 1531 1530 1529 1528 1527 1526 1524 1523 1522 1520 1519 1517 1515 1512 1511 1509 1507 1506 1505 1504 1503 1502
1497 1495 1500 1502 1516 1516 1510 1506 1503 1501 1503 1505 1508 1511 1514 1518 1520 1523 1525 1526 1527 1528 1529 1529 1529 1528 1528 1528 1527 1527 1525 1524 1522 1521 1519 1517 1515 1513 1512 1510 1508 1506 1504 1503 1501 1500 1499 1498 1497
1500 1500 1499 1498 1502 1512 1514 1506 1490 1495 1497 1500 1503 1507 1511 1514 1517 1520 1522 1524 1525 1526 1526 1526 1526 1525 1525 1525 1523 1522 1521 1520 1519 1517 1515 1513 1511 1509 1507 1505 1503 1501 1500 1498 1496 1495 1494 1493 1492
1492 1493 1497 1506 1506 1504 1505 1502 1488 1491 1494 1497 1500 1504 1508 1512 1515 1517 1519 1521 1522 1523 1524 1524 1523 1523 1522 1521 1520 1519 1517 1516 1514 1513 1511 1509 1507 1505 1503 1500 1498 1496 1494 1492 1491 1489 1488 1487 1486